Query Options
Date and Time
prev <   Hour:    > next
Selected Variables
Available Variables
States


Actions

Manual Quality Control

You have selected 0 variables for manual quality control.

These variables will be removed from the active data set and placed in the quality control database.

Please enter a detailed reason for this action in the space provided below.


Results
mouse over column headers for more information or click to sort
City/LocationStateDate/TimeSourceTempWind
Chill
DewPtBPRHPrecipWind
Speed
Wind
Dir
Max
Wind
Hamilton Twp. (Mercer)NJ2014-04-16 19:59NJDOT454512 25 1N 
Maurice Township 2NJ2014-04-16 19:59NJDOT393926 58 0SSE 
Springfield TownshipNJ2014-04-16 19:59NJDOT434310 24 1N 
McGuire AFBNJ2014-04-16 19:58AWOS39352130.4548 6N 
Toms RiverNJ2014-04-16 20:35AWOS36 2730.4969 0N 
CaldwellNJ2014-04-16 19:53ASOS43431430.4931 0N 
West Orange 2NJ2014-04-16 19:59NJDOT424213 30 1NNW 
SomervilleNJ2014-04-16 19:53ASOS43401630.4533 5NNW 
Monroe TownshipNJ2014-04-16 19:59NJDOT444415 29 1NW 
EatontownNJ2014-04-16 19:59NJDOT444413 28 1NE 
Greenwich (Warren)NJ2014-04-16 19:59NJDOT42428 24 0ENE 
Mansfield Township (NJDOT)NJ2014-04-16 19:59NJDOT  11 28 0NNE 
Atlantic City (NJDOT)NJ2014-04-16 19:59NJDOT444222 43 3ESE 
WalpackNJ2014-04-16 19:53SafetyNet34    0.00 NNE 
HackettstownNJ2014-04-16 19:53SafetyNet39  30.48 0.00 NW 
Jackson (R)NJ2014-04-16 20:10RAWS40 20 44 1NNE6
HillsboroughNJ2014-04-16 19:52SafetyNet42  30.48 0.00 ENE9
BivalveNJ2014-04-16 19:52SafetyNet42  30.45 0.00  8
WantageNJ2014-04-16 19:52SafetyNet363017 450.008NNE16
StewartsvilleNJ2014-04-16 19:52SafetyNet42 2430.48490.00 WNW6
PembertonNJ2014-04-16 20:00NJDOT393926 59 0SSW 
High Pt. MonumentNJ2014-04-16 19:52SafetyNet33 16 490.00   
HawthorneNJ2014-04-16 19:52SafetyNet44  30.44 0.00 N8
Mullica Twp.NJ2014-04-16 19:53SafetyNet43  30.46   NNE 
HopeNJ2014-04-16 19:53SafetyNet37    0.00 NNE 
Mount HollyNJ2014-04-16 19:54ASOS43401930.4739 5N 
Atlantic City AirportNJ2014-04-16 19:54ASOS41382730.4656 5ESE 
AndoverNJ2014-04-16 19:54ASOS39341430.4635 7N 
TrentonNJ2014-04-16 19:53ASOS43391430.4431 6NNE 
Chester TownshipNJ2014-04-16 19:59NJDOT3939    0NNW 
OceanportNJ2014-04-16 20:00Mesonet444418 340.003N13
Wall Twp.NJ2014-04-16 20:00Mesonet424216 350.000N11
Basking RidgeNJ2014-04-16 20:00Mesonet42421430.43320.003N12
Upper DeerfieldNJ2014-04-16 20:00Mesonet43432030.44390.002NE16
WoodbineNJ2014-04-16 20:00Mesonet39392830.44640.003E12
Berkeley Twp.NJ2014-04-16 20:00Mesonet40382430.44520.003NNE9
LakehurstNJ2014-04-16 20:00AWOS  1930.4644 0N 
Woodbridge TwpNJ2014-04-16 20:00NJDOT454511 25 1NNE 
Woodbine (R)NJ2014-04-16 20:11RAWS40 27 59 2E9
ForsytheNJ2014-04-16 20:25RAWS42 28 58 4NNE11
Coyle FieldNJ2014-04-16 20:10RAWS37 25 61 0 10
Ancora HospitalNJ2014-04-16 20:10RAWS41     5N10
Warren TownshipNJ2014-04-16 20:00NJDOT424215 33 1N 
GreenwichNJ2014-04-16 20:00Mesonet434319 390.000NNE10
Cherry HillNJ2014-04-16 20:00Mesonet434321 410.000NW8
Fort Dix INJ2014-04-16 20:00USFS434320 400.003NE8
Wildwood (NJDOT)NJ2014-04-16 20:00NJDOT424221 41 2NNE 
West Orange 1NJ2014-04-16 19:59NJDOT404015 34 1NNW 
SussexNJ2014-04-16 19:53ASOS41381230.4830 5NNW 
Cherry Hill TownshipNJ2014-04-16 19:59NJDOT424212 28 0ENE 
Knowlton TownshipNJ2014-04-16 19:59NJDOT404011 29 0N 
Dennis Twp.NJ2014-04-16 20:00Mesonet404028 620.000ENE11
PittstownNJ2014-04-16 20:00Mesonet38381530.40380.002N14
West Cape MayNJ2014-04-16 20:00Mesonet414131 660.000SE13
CharlotteburgNJ2014-04-16 20:00Mesonet38381430.45370.000ESE11
South HarrisonNJ2014-04-16 20:00Mesonet434324 480.000NNW8
HamiltonNJ2014-04-16 20:00Mesonet424220 410.000N6
Sea GirtNJ2014-04-16 20:00Mesonet44411530.45310.006N15
New BrunswickNJ2014-04-16 20:00Mesonet43431830.48370.000NE9
Atlantic City MarinaNJ2014-04-16 19:52SafetyNet4440   0.008ENE13
High PointNJ2014-04-16 20:00Mesonet3330930.34350.004NW10
Egg HarborNJ2014-04-16 20:00Mesonet414127 580.000NW8
Piney HollowNJ2014-04-16 20:00Mesonet414122 460.000NNE6
Cedar BridgeNJ2014-04-16 20:00USFS424218 380.002NNE5
ButlerNJ2014-04-16 20:30APRSWXNET/CWOP41 20 43    
SummitNJ2014-04-16 19:59NJDOT424212 28 1N 
HaworthNJ2014-04-16 20:00Mesonet44401430.44300.006NE13
Mount Olive TownshipNJ2014-04-16 20:00NJDOT373714 38 0NE 
Linden AirportNJ2014-04-16 20:35AWOS46 1630.5130 7N 
FarmingdaleNJ2014-04-16 20:35AWOS43 1830.4836 3N 
North Beach HavenNJ2014-04-16 20:30APRSWXNET/CWOP43 31 63 7NE 
Blue Mountain LakesNJ2014-04-16 20:14RAWS34 17 490.004NW7
NewarkNJ2014-04-16 19:51ASOS46 1430.4627 13NW20
E. BrunswickNJ2014-04-16 20:30APRSWXNET/CWOP42 18 38    
HammontonNJ2014-04-16 20:00Mesonet424228 570.000NNE11
Cape May CourthouseNJ2014-04-16 20:00Mesonet404029 640.002ENE9
Atlantic City (HADS)NJ2014-04-16 20:15HADS      0NE1
Gooseneck Pt. BridgeNJ2014-04-16 20:15Shrewsbury Network45  30.5029 5N 
Logan TownshipNJ2014-04-16 19:59NJDOT444421 40 2NNW 
TeetertownNJ2014-04-16 20:10RAWS36     5NNW11
MorristownNJ2014-04-16 20:38ASOS43 14 31 3N 
BarnegatNJ2014-04-16 20:30HADS      5E5
MillvilleNJ2014-04-16 19:54ASOS45412130.4639 7NE 
Maurice Township 1NJ2014-04-16 20:00NJDOT414119 40 0ENE 
Sea BrightNJ2014-04-16 20:15Shrewsbury Network46  30.5336    
Oceanic BridgeNJ2014-04-16 20:15Shrewsbury Network45  30.5032 6ENE 
Keansburg (HADS)NJ2014-04-16 20:30HADS     0.0011N 
Cape May HarborNJ2014-04-16 20:15HADS      11E17
WanaqueNJ2014-04-16 19:59NJDOT414112 30 0NNE 
Freehold TownshipNJ2014-04-16 19:59NJDOT454517 31 0NE 
SicklervilleNJ2014-04-16 20:00Mesonet41411830.47390.002N14
ClaytonNJ2014-04-16 19:52SafetyNet44    0.00   
Point PleasantNJ2014-04-16 19:52SafetyNet45  30.45 0.00  3
Cream RidgeNJ2014-04-16 20:00Mesonet41391630.46350.004NNE12
HowellNJ2014-04-16 20:00Mesonet40401830.35400.000NNE7
WayneNJ2014-04-16 19:52SafetyNet44    0.00   
Lyndhurst (NJMC)NJ2014-04-16 20:00MERI45431730.51320.004NNW10
West CreekNJ2014-04-16 19:52SafetyNet43    0.00   
Harvey CedarsNJ2014-04-16 19:52SafetyNet4338   0.009NNE18
PequestNJ2014-04-16 20:00Mesonet39391530.50380.002NNE10
HolmdelNJ2014-04-16 20:00Mesonet404019 420.000W5
KingwoodNJ2014-04-16 19:52SafetyNet39  30.49 0.00 NNE 
Oswego LakeNJ2014-04-16 20:00Mesonet40402930.45640.001WSW9
Seaside HeightsNJ2014-04-16 19:52SafetyNet4338 30.47 0.007ENE12
Red LionNJ2014-04-16 19:52SafetyNet40  30.43 0.00 NNE 
Upper Freehold Twp.NJ2014-04-16 19:59NJDOT424211 28 1N 
TeterboroNJ2014-04-16 19:51ASOS47 1430.4626 7NNE 
Berkeley HeightsNJ2014-04-16 19:59NJDOT424215 33 0SSW 
Wildwood (A)NJ2014-04-16 20:35AWOS39 2730.5160 3E 
Allamuchy Twp.NJ2014-04-16 19:59NJDOT373710 31 0N 
LafayetteNJ2014-04-16 19:59NJDOT393914 35 0NE 
Piscataway 1NJ2014-04-16 19:59NJDOT44449 23 0NNE 
Piscataway 2NJ2014-04-16 19:59NJDOT454515 29 1WSW 
RamseyNJ2014-04-16 19:52SafetyNet41  30.51 0.00   
Old Bridge TownshipNJ2014-04-16 19:59NJDOT444418 35 0NE 
Hamilton Twp. (Atlantic)NJ2014-04-16 19:59NJDOT424215 33 0NNE 
NetcongNJ2014-04-16 19:52SafetyNet37    0.00   
West Windsor TownshipNJ2014-04-16 19:59NJDOT434310 24 1NNW 
Jersey City (LSC)NJ2014-04-16 20:00Mesonet44411630.47320.004ENE14
Download this data for Excel